User: anonymous   Login
Location: Unspecified
(0.0000°N, 0.0000°E)
Time: 17:19:06
(UTC+00:00)
Language:

FIREBIRD 3 - Orbit

View from above orbital plane
View from above orbital plane
View from above satellite
View from above satellite

Ground track
Ground track

The orbit data is extracted from the following two-line orbital elements,

1 40377U 15003B   18146.15876302  .00001438  00000-0  62928-4 0  9999
2 40377  99.0892  43.5370 0130457 304.3132  54.5805 15.17175279182988
Epoch (UTC): 26 May 2018 03:48:37
Eccentricity: 0.0130457
inclination: 99.0892°
perigee height: 424 km
apogee height: 604 km
right ascension of ascending node: 43.5370°
argument of perigee: 304.3132°
revolutions per day: 15.17175279
mean anomaly at epoch: 54.5805°
orbit number at epoch: 18298

The dashed part of the orbit path shows where the satellite is in the earth's shadow,  

DLR